Location: Anglesey
(53.1800°N, 4.2200°W)
Time: 20:32:57
(UTC+00:00)

Amateur Radio Satellites - All Passes

Search period start: 23 November 2017 20:02
Search period end: 24 November 2017 20:02
Location: Anglesey, 53.1800°N, 4.2200°W

Satellite Date Start Highest point End Downlink Frequencies (MHz)
Time Altitude Azimuth
STARS 23 Nov 20:12:10 20:14:50 16° 306° (NW) 20:17:31 437.465
ZACube-1 23 Nov 20:17:44 20:21:35 32° 264° (W) 20:25:23 437.345
AAUSAT CUBESAT 2 23 Nov 20:20:02 20:23:15 22° 269° (W) 20:26:29 437.432
O/OREOS (USA 219) 23 Nov 20:21:18 20:24:09 16° 34° (NNE) 20:26:58 437.305
SEEDS 23 Nov 20:23:49 20:24:59 11° 276° (W) 20:26:09 437.485
DELFI C3 23 Nov 20:25:02 20:28:54 50° 69° (ENE) 20:32:47 145.870
UWE-3 23 Nov 20:35:09 20:37:40 15° 272° (W) 20:40:10 435.000/436.395/437.385
STRAND 1 23 Nov 20:35:14 20:40:19 62° 291° (WNW) 20:45:20 437.568
nSIGHT-1 23 Nov 20:42:43 20:45:13 21° 149° (SSE) 20:47:43 .
EO-88 23 Nov 20:50:21 20:53:50 46° 70° (ENE) 20:57:21 145.990 - 145.960
NO-84 23 Nov 20:51:22 20:55:20 42° 214° (SW) 20:59:22 435.350 FM
Max Valier Satellite 23 Nov 20:58:02 21:01:41 78° 75° (ENE) 21:05:21 145.860
LO-87 23 Nov 21:08:03 21:09:59 14° 58° (ENE) 21:11:55 145.935 - 145.965
AO-73 23 Nov 21:09:22 21:11:27 13° 273° (W) 21:13:31 145.935
ESTCUBE 1 23 Nov 21:21:06 21:24:20 20° 57° (ENE) 21:27:35 437.505/2401.250
Oscar 11 23 Nov 21:22:23 21:24:47 14° 273° (W) 21:27:11 .
ISS 23 Nov 21:34:38 21:37:38 34° 157° (SSE) 21:40:40 437.550
FO-29 23 Nov 21:44:01 21:51:53 72° 292° (WNW) 21:59:22 435.910
SO-50 23 Nov 21:54:26 21:58:48 54° 127° (SE) 22:03:15 436.795
O/OREOS (USA 219) 23 Nov 21:59:58 22:04:32 61° 57° (ENE) 22:09:01 437.305
RS-15 23 Nov 22:00:25 22:12:27 53° 341° (NNW) 22:24:08 29.354- 29.394
DELFI C3 23 Nov 22:00:56 22:03:55 20° 269° (W) 22:06:55 145.870
SPROUT 23 Nov 22:07:13 22:09:42 15° 55° (NE) 22:12:12 437.525
UNISAT 6 23 Nov 22:09:18 22:13:35 61° 102° (ESE) 22:17:47 437.425
TIGRISAT 23 Nov 22:12:54 22:17:09 61° 101° (E) 22:21:21 435.000
STRAND 1 23 Nov 22:15:56 22:18:34 14° 312° (NW) 22:21:11 437.568
nSIGHT-1 23 Nov 22:17:53 22:21:02 55° 168° (SSE) 22:24:12 .
PRISM 23 Nov 22:19:14 22:22:55 29° 95° (E) 22:26:33 437.425
EO-88 23 Nov 22:25:10 22:27:44 18° 269° (W) 22:30:18 145.990 - 145.960
NO-84 23 Nov 22:30:45 22:31:51 11° 233° (SW) 22:32:56 435.350 FM
Max Valier Satellite 23 Nov 22:34:42 22:36:01 12° 273° (W) 22:37:21 145.860
LO-87 23 Nov 22:39:19 22:42:55 73° 257° (WSW) 22:46:32 145.935 - 145.965
PCSat 23 Nov 22:45:24 22:47:46 13° 103° (ESE) 22:50:07 145.827
ESTCUBE 1 23 Nov 22:56:12 23:00:41 72° 257° (WSW) 23:05:13 437.505/2401.250
AIST 2D 23 Nov 22:56:27 22:59:23 24° 94° (E) 23:02:19 435.315
EO-79 23 Nov 23:01:05 23:02:38 12° 86° (E) 23:04:10 145.935-145.965
NANOSAT C BR1 23 Nov 23:02:54 23:03:56 11° 85° (E) 23:04:59 145.865
VELOX 1 23 Nov 23:05:03 23:09:00 32° 63° (ENE) 23:12:59 145.980
ISS 23 Nov 23:10:37 23:13:53 67° 176° (S) 23:17:08 437.550
POLYITAN 1 23 Nov 23:16:17 23:18:58 16° 89° (E) 23:21:37 437.675
FO-29 23 Nov 23:29:46 23:35:42 24° 314° (NW) 23:41:31 435.910
SO-50 23 Nov 23:35:16 23:39:28 38° 329° (NNW) 23:43:44 436.795
QB50P2 23 Nov 23:39:10 23:42:50 28° 94° (E) 23:46:29 145.880/145.840
O/OREOS (USA 219) 23 Nov 23:40:04 23:43:34 22° 257° (WSW) 23:47:00 437.305
50 SAT 23 Nov 23:40:10 23:42:07 15° 60° (ENE) 23:44:03 437.505
SPROUT 23 Nov 23:40:42 23:45:00 89° 73° (ENE) 23:49:19 437.525
DX 1 23 Nov 23:42:27 23:45:50 22° 58° (ENE) 23:49:13 434.975-435.025
UNISAT 6 23 Nov 23:46:44 23:49:55 21° 301° (WNW) 23:53:05 437.425
TIGRISAT 23 Nov 23:50:18 23:53:29 21° 301° (WNW) 23:56:38 435.000
nSIGHT-1 23 Nov 23:53:57 23:57:08 63° 187° (S) 00:00:19 .
PRISM 23 Nov 23:54:23 23:58:16 37° 294° (WNW) 00:02:06 437.425
RS-15 24 Nov 00:15:51 00:27:43 51° 14° (NNE) 00:39:03 29.354- 29.394
UKube-1 24 Nov 00:18:07 00:21:51 29° 62° (ENE) 00:25:37 .
DUCHIFAT 1 24 Nov 00:23:59 00:28:06 53° 101° (E) 00:32:10 145.980
PCSat 24 Nov 00:24:47 00:30:08 64° 123° (ESE) 00:35:31 145.827
AIST 2D 24 Nov 00:29:25 00:32:37 33° 292° (WNW) 00:35:49 435.315
EO-79 24 Nov 00:34:51 00:39:05 85° 106° (ESE) 00:43:16 145.935-145.965
NANOSAT C BR1 24 Nov 00:36:10 00:40:23 79° 103° (ESE) 00:44:34 145.865
AO-91 24 Nov 00:36:55 00:39:08 13° 82° (E) 00:41:15 145.960
ESTCUBE 1 24 Nov 00:37:17 00:38:20 11° 276° (W) 00:39:23 437.505/2401.250
MOZHAYETS 4 24 Nov 00:40:19 00:42:29 13° 52° (NE) 00:44:41
VELOX 1 24 Nov 00:41:13 00:45:23 38° 262° (W) 00:49:36 145.980
BEESAT 24 Nov 00:42:57 00:45:11 13° 49° (NE) 00:47:24 436.000
ISS 24 Nov 00:47:02 00:50:12 48° 197° (SSW) 00:53:22 437.550
POLYITAN 1 24 Nov 00:51:01 00:55:12 69° 288° (WNW) 00:59:22 437.675
ITUPSAT 1 24 Nov 00:53:54 00:56:41 16° 51° (NE) 00:59:27 437.325
Gurwin Techsat 1B 24 Nov 00:58:29 01:02:07 18° 87° (E) 01:05:44 435.225
BUGSAT 1 24 Nov 01:05:30 01:09:19 38° 98° (E) 01:13:04 437.445
50 SAT 24 Nov 01:10:41 01:13:50 52° 258° (WSW) 01:17:02 437.505
QB50P2 24 Nov 01:14:49 01:18:43 38° 294° (WNW) 01:22:37 145.880/145.840
DX 1 24 Nov 01:17:20 01:21:40 60° 258° (WSW) 01:26:02 434.975-435.025
SO-50 24 Nov 01:17:40 01:21:05 20° 353° (N) 01:24:32 436.795
SPROUT 24 Nov 01:19:31 01:21:32 13° 274° (W) 01:23:33 437.525
nSIGHT-1 24 Nov 01:30:16 01:33:03 27° 207° (SSW) 01:35:50 .
Oscar 19 24 Nov 01:49:14 01:54:20 56° 101° (E) 01:59:25 437.125/150
UKube-1 24 Nov 01:53:38 01:57:45 41° 261° (W) 02:01:53 .
M-CUBED/EXP-1 PRIME 24 Nov 01:59:14 02:00:43 11° 91° (E) 02:02:12 437.505
DUCHIFAT 1 24 Nov 02:00:14 02:03:28 22° 300° (WNW) 02:06:42 145.980
PCSat 24 Nov 02:08:51 02:13:53 37° 326° (NW) 02:18:57 145.827
AO-91 24 Nov 02:11:43 02:16:29 89° 110° (ESE) 02:20:41 145.960
EO-79 24 Nov 02:11:45 02:14:17 16° 304° (NW) 02:16:47 145.935-145.965
NANOSAT C BR1 24 Nov 02:12:56 02:15:34 17° 304° (NW) 02:18:13 145.865
AO-7 24 Nov 02:13:52 02:19:15 18° 84° (E) 02:24:36 .
MOZHAYETS 4 24 Nov 02:14:20 02:18:52 70° 72° (ENE) 02:23:25
BEESAT 24 Nov 02:17:23 02:22:05 63° 69° (ENE) 02:26:49 436.000
BEESAT 2 24 Nov 02:17:56 02:19:31 12° 111° (ESE) 02:21:07 435.950
ISS 24 Nov 02:24:00 02:26:10 17° 215° (SW) 02:28:19 437.550
POLYITAN 1 24 Nov 02:28:38 02:30:14 12° 308° (NW) 02:31:50 437.675
ITUPSAT 1 24 Nov 02:29:00 02:33:46 76° 72° (ENE) 02:38:34 437.325
RS-15 24 Nov 02:29:37 02:41:46 86° 45° (NE) 02:53:15 29.354- 29.394
CUBESAT XI-V 24 Nov 02:34:02 02:38:07 32° 63° (ENE) 02:42:14 437.345
BEESAT 3 24 Nov 02:34:12 02:37:59 43° 125° (SE) 02:41:50 437.485
Gurwin Techsat 1B 24 Nov 02:37:24 02:42:47 85° 288° (WNW) 02:48:07 435.225
BUGSAT 1 24 Nov 02:41:06 02:44:33 27° 297° (WNW) 02:47:58 437.445
SO-50 24 Nov 02:59:12 03:02:57 24° 17° (NNE) 03:06:44 436.795
AO-85 24 Nov 03:12:53 03:15:14 15° 113° (ESE) 03:17:38 145.980
YUBILEINY 24 Nov 03:15:33 03:19:28 14° 65° (ENE) 03:23:24 435.215
Oscar 19 24 Nov 03:29:00 03:33:24 29° 301° (WNW) 03:37:48 437.125/150
M-CUBED/EXP-1 PRIME 24 Nov 03:31:17 03:35:48 68° 108° (ESE) 03:40:27 437.505
KKS-1 24 Nov 03:45:14 03:49:25 40° 65° (ENE) 03:53:37 437.445
ITAMSAT 1 24 Nov 03:48:04 03:53:05 44° 99° (E) 03:58:02 435.822/435.867
AO-91 24 Nov 03:49:12 03:52:11 17° 307° (NW) 03:55:00 145.960
BEESAT 2 24 Nov 03:52:31 03:56:32 73° 130° (SE) 04:00:36 435.950
MOZHAYETS 4 24 Nov 03:53:21 03:56:31 18° 271° (W) 03:59:42
PCSat 24 Nov 03:54:50 03:58:47 20° 350° (N) 04:02:44 145.827
BEESAT 24 Nov 03:56:36 04:00:16 22° 269° (W) 04:03:58 436.000
STARS 24 Nov 04:01:29 04:05:13 27° 61° (ENE) 04:08:57 437.465
AO-7 24 Nov 04:05:18 04:13:40 68° 107° (ESE) 04:21:59 .
ITUPSAT 1 24 Nov 04:08:55 04:12:10 18° 271° (W) 04:15:25 437.325
CUBESAT XI-V 24 Nov 04:11:04 04:15:24 41° 263° (W) 04:19:49 437.345
BEESAT 3 24 Nov 04:11:52 04:15:37 37° 326° (NW) 04:19:23 437.485
Gurwin Techsat 1B 24 Nov 04:18:20 04:22:02 19° 308° (NW) 04:25:44 435.225
FO-29 24 Nov 04:38:35 04:41:14 12° 29° (NNE) 04:43:55 435.910
SO-50 24 Nov 04:39:39 04:44:13 61° 40° (NE) 04:48:52 436.795
STRAND 1 24 Nov 04:42:17 04:44:59 14° 48° (NE) 04:47:41 437.568
RS-15 24 Nov 04:42:43 04:53:05 38° 252° (WSW) 05:03:00 29.354- 29.394
AO-85 24 Nov 04:51:01 04:54:59 86° 315° (NW) 04:59:13 145.980
DOVE 4 24 Nov 04:51:48 04:56:41 39° 95° (E) 05:01:19 437.250
YUBILEINY 24 Nov 05:05:43 05:14:09 55° 90° (E) 05:22:39 435.215
M-CUBED/EXP-1 PRIME 24 Nov 05:06:15 05:09:50 24° 307° (NW) 05:13:28 437.505
KKS-1 24 Nov 05:22:04 05:26:04 31° 265° (W) 05:30:05 437.445
ITAMSAT 1 24 Nov 05:27:45 05:32:29 36° 299° (WNW) 05:37:11 435.822/435.867
BEESAT 2 24 Nov 05:31:05 05:34:38 28° 332° (NNW) 05:38:11 435.950
STARS 24 Nov 05:37:05 05:41:21 47° 260° (W) 05:45:40 437.465
PCSat 24 Nov 05:39:53 05:44:06 22° 17° (NNE) 05:48:17 145.827
XW-2D 24 Nov 05:40:26 05:43:28 22° 92° (E) 05:46:31 145.860 - 145.880
CUTE-I 24 Nov 05:41:55 05:46:09 23° 90° (E) 05:50:21 437.470
BEESAT 3 24 Nov 05:51:27 05:54:09 17° 348° (NNW) 05:56:51 437.485
XW-2B 24 Nov 05:55:09 05:58:33 29° 95° (E) 06:01:55 145.730 - 145.750
NUDT-PHONESAT 24 Nov 05:56:52 05:59:51 22° 93° (E) 06:02:49 437.300
AO-7 24 Nov 05:58:28 06:06:05 41° 309° (NW) 06:13:42 .
CUTE 1.7 + AOD 2 24 Nov 05:59:28 06:00:41 11° 84° (E) 06:01:54 437.475
FO-29 24 Nov 06:17:47 06:23:58 32° 53° (NE) 06:30:35 435.910
STRAND 1 24 Nov 06:18:10 06:23:15 63° 69° (ENE) 06:28:21 437.568
SO-50 24 Nov 06:20:27 06:24:27 29° 240° (WSW) 06:28:29 436.795
XW-2C 24 Nov 06:20:44 06:24:30 54° 100° (E) 06:28:15 145.795 - 145.815
SEEDS 24 Nov 06:23:27 06:25:11 12° 85° (E) 06:26:56 437.485
LilacSat-2 24 Nov 06:26:35 06:30:26 67° 102° (ESE) 06:34:16 437.200
XW-2F 24 Nov 06:28:31 06:32:17 61° 101° (ESE) 06:36:04 145.980 - 146.000
DOVE 4 24 Nov 06:29:30 06:34:22 40° 296° (WNW) 06:39:00 437.250
AO-85 24 Nov 06:32:32 06:35:58 25° 338° (NNW) 06:39:36 145.980
HO-68 24 Nov 06:39:38 06:46:03 33° 93° (E) 06:52:24 435.675
KAITUO 1B 24 Nov 06:50:58 06:54:46 85° 101° (E) 06:58:34 145.475/437.950
YUBILEINY 24 Nov 07:02:48 07:11:11 47° 294° (WNW) 07:19:41 435.215
BEESAT 2 24 Nov 07:10:56 07:13:32 16° 355° (N) 07:16:09 435.950
XW-2D 24 Nov 07:14:12 07:17:49 41° 291° (WNW) 07:21:26 145.860 - 145.880
AO-73 24 Nov 07:14:29 07:15:04 10° 84° (E) 07:15:38 145.935
CUTE-I 24 Nov 07:21:21 07:26:44 70° 290° (WNW) 07:32:03 437.470
PCSat 24 Nov 07:23:25 07:28:44 50° 41° (NE) 07:34:00 145.827
CUBEBUG 2 24 Nov 07:25:42 07:29:41 40° 98° (E) 07:33:36 437.445
Oscar 11 24 Nov 07:27:22 07:28:00 10° 83° (E) 07:28:37 .
XW-2B 24 Nov 07:29:19 07:32:43 31° 294° (WNW) 07:36:07 145.730 - 145.750
BEESAT 3 24 Nov 07:30:20 07:33:04 17° 12° (NNE) 07:35:47 437.485
NUDT-PHONESAT 24 Nov 07:30:21 07:33:50 39° 292° (WNW) 07:37:20 437.300
CUTE 1.7 + AOD 2 24 Nov 07:32:58 07:37:16 78° 103° (ESE) 07:41:33 437.475
UNISAT 6 24 Nov 07:38:47 07:41:54 19° 58° (ENE) 07:44:59 437.425
TIGRISAT 24 Nov 07:42:16 07:45:22 19° 58° (ENE) 07:48:26 435.000
AO-7 24 Nov 07:51:52 07:56:47 17° 334° (NNW) 08:01:42 .
AAUSAT CUBESAT 2 24 Nov 07:54:26 07:58:25 40° 97° (E) 08:02:23 437.432
XW-2C 24 Nov 07:55:38 07:58:21 19° 299° (WNW) 08:01:05 145.795 - 145.815
SEEDS 24 Nov 07:57:16 08:01:33 86° 106° (ESE) 08:05:48 437.485
STRAND 1 24 Nov 07:58:41 08:02:51 24° 269° (W) 08:07:02 437.568
ZACube-1 24 Nov 07:59:06 08:02:47 30° 95° (E) 08:06:28 437.345
FO-29 24 Nov 08:01:16 08:08:17 80° 256° (WSW) 08:16:05 435.910
LilacSat-2 24 Nov 08:01:50 08:04:17 16° 301° (WNW) 08:06:44 437.200
XW-2A 24 Nov 08:03:13 08:06:32 51° 101° (E) 08:09:50 145.665 - 145.685
XW-2F 24 Nov 08:03:29 08:06:01 17° 300° (WNW) 08:08:33 145.980 - 146.000
AO-85 24 Nov 08:14:44 08:17:43 18° 3° (N) 08:20:51 145.980
UWE-3 24 Nov 08:15:47 08:19:57 75° 103° (ESE) 08:24:06 435.000/436.395/437.385
KAITUO 1B 24 Nov 08:26:20 08:28:13 13° 303° (WNW) 08:30:05 145.475/437.950
HO-68 24 Nov 08:27:09 08:34:18 67° 295° (WNW) 08:41:23 435.675
AO-73 24 Nov 08:47:53 08:52:03 77° 103° (ESE) 08:56:13 145.935
BEESAT 2 24 Nov 08:49:30 08:52:37 21° 19° (NNE) 08:55:44 435.950
Oscar 11 24 Nov 09:00:35 09:04:57 72° 103° (ESE) 09:09:16 .
CUBEBUG 2 24 Nov 09:02:38 09:06:11 27° 297° (WNW) 09:09:40 437.445
CUTE-I 24 Nov 09:02:39 09:05:54 17° 311° (NW) 09:09:09 437.470
YUBILEINY 24 Nov 09:05:57 09:10:53 16° 322° (NW) 09:15:50 435.215
PCSat 24 Nov 09:07:01 09:12:06 42° 243° (WSW) 09:17:10 145.827
BEESAT 3 24 Nov 09:07:47 09:11:35 39° 35° (NE) 09:15:18 437.485
CUTE 1.7 + AOD 2 24 Nov 09:09:48 09:12:36 17° 303° (WNW) 09:15:22 437.475
UNISAT 6 24 Nov 09:13:39 09:18:10 75° 256° (WSW) 09:22:37 437.425
PRISM 24 Nov 09:13:48 09:17:46 47° 68° (ENE) 09:21:48 437.425
TIGRISAT 24 Nov 09:17:06 09:21:36 75° 256° (WSW) 09:26:03 435.000
AAUSAT CUBESAT 2 24 Nov 09:30:09 09:33:45 28° 297° (WNW) 09:37:20 437.432
DELFI C3 24 Nov 09:30:09 09:33:52 35° 96° (E) 09:37:33 145.870
SEEDS 24 Nov 09:34:07 09:36:39 16° 304° (NW) 09:39:12 437.485
ZACube-1 24 Nov 09:35:20 09:39:08 35° 294° (WNW) 09:42:56 437.345
AIST 2D 24 Nov 09:36:25 09:39:13 23° 65° (ENE) 09:42:04 435.315
XW-2A 24 Nov 09:36:46 09:38:54 16° 299° (WNW) 09:41:02 145.665 - 145.685
AO-7 24 Nov 09:43:32 09:46:19 12° 2° (N) 09:49:06 .
EO-88 24 Nov 09:46:17 09:49:24 26° 94° (E) 09:52:31 145.990 - 145.960
DUCHIFAT 1 24 Nov 09:48:01 09:50:20 15° 55° (NE) 09:52:37 145.980
FO-29 24 Nov 09:49:27 09:54:37 21° 279° (W) 10:00:08 435.910
UWE-3 24 Nov 09:53:16 09:55:56 17° 303° (WNW) 09:58:36 435.000/436.395/437.385
Max Valier Satellite 24 Nov 09:55:18 09:58:51 44° 99° (E) 10:02:23 145.860
AO-85 24 Nov 09:55:32 09:59:25 29° 26° (NNE) 10:03:32 145.980
EO-79 24 Nov 09:58:24 10:01:36 21° 59° (ENE) 10:04:46 145.935-145.965
NANOSAT C BR1 24 Nov 09:59:35 10:02:38 20° 58° (ENE) 10:05:40 145.865
POLYITAN 1 24 Nov 10:14:08 10:17:44 28° 63° (ENE) 10:21:20 437.675
HO-68 24 Nov 10:15:45 10:20:53 22° 317° (NW) 10:25:59 435.675
AO-73 24 Nov 10:25:12 10:27:48 16° 303° (WNW) 10:30:25 145.935
BEESAT 2 24 Nov 10:27:03 10:31:05 60° 41° (NE) 10:35:04 435.950
BUGSAT 1 24 Nov 10:28:55 10:30:02 11° 52° (NE) 10:31:09 437.445
QB50P2 24 Nov 10:37:08 10:41:12 47° 68° (ENE) 10:45:17 145.880/145.840
Oscar 11 24 Nov 10:37:37 10:40:37 19° 302° (WNW) 10:43:38 .
ESTCUBE 1 24 Nov 10:43:12 10:46:06 17° 88° (E) 10:49:00 437.505/2401.250
BEESAT 3 24 Nov 10:45:25 10:49:08 39° 236° (SW) 10:52:47 437.485
Gurwin Techsat 1B 24 Nov 10:49:18 10:51:29 13° 45° (NE) 10:53:41 435.225
PRISM 24 Nov 10:49:56 10:53:16 23° 267° (W) 10:56:38 437.425
UNISAT 6 24 Nov 10:54:21 10:55:39 11° 276° (W) 10:56:57 437.425
TIGRISAT 24 Nov 10:57:43 10:59:03 11° 275° (W) 11:00:23 435.000
DELFI C3 24 Nov 11:05:03 11:08:33 29° 295° (WNW) 11:12:01 145.870
AIST 2D 24 Nov 11:09:06 11:12:16 33° 263° (W) 11:15:29 435.315
EO-88 24 Nov 11:19:47 11:23:06 32° 293° (WNW) 11:26:23 145.990 - 145.960
DUCHIFAT 1 24 Nov 11:21:09 11:25:22 87° 79° (E) 11:29:36 145.980
SPROUT 24 Nov 11:22:51 11:23:19 10° 84° (E) 11:23:46 437.525
Max Valier Satellite 24 Nov 11:29:39 11:32:27 21° 298° (WNW) 11:35:15 145.860
AO-7 24 Nov 11:30:39 11:35:57 19° 29° (NNE) 11:41:16 .
EO-79 24 Nov 11:32:49 11:37:01 59° 259° (W) 11:41:12 145.935-145.965
LO-87 24 Nov 11:33:10 11:36:40 57° 101° (E) 11:40:09 145.935 - 145.965
NANOSAT C BR1 24 Nov 11:33:45 11:37:56 64° 257° (WSW) 11:42:09 145.865
Oscar 19 24 Nov 11:34:09 11:38:29 29° 59° (ENE) 11:42:50 437.125/150
AO-85 24 Nov 11:35:45 11:40:19 87° 229° (SW) 11:45:14 145.980
AO-91 24 Nov 11:37:52 11:42:27 29° 61° (ENE) 11:46:56 145.960
POLYITAN 1 24 Nov 11:49:22 11:53:22 41° 262° (W) 11:57:24 437.675
BUGSAT 1 24 Nov 12:00:28 12:04:36 63° 71° (ENE) 12:08:42 437.445
BEESAT 2 24 Nov 12:05:14 12:08:31 24° 242° (WSW) 12:11:45 435.950
QB50P2 24 Nov 12:13:46 12:17:13 24° 267° (W) 12:20:41 145.880/145.840
ESTCUBE 1 24 Nov 12:18:54 12:23:28 77° 287° (WNW) 12:28:00 437.505/2401.250
O/OREOS (USA 219) 24 Nov 12:19:28 12:22:53 21° 103° (ESE) 12:26:18 437.305
VELOX 1 24 Nov 12:24:45 12:28:31 26° 93° (E) 12:32:16 145.980
Gurwin Techsat 1B 24 Nov 12:25:12 12:30:20 51° 66° (ENE) 12:35:30 435.225
M-CUBED/EXP-1 PRIME 24 Nov 12:48:57 12:52:20 31° 56° (ENE) 12:56:00 437.505
SPROUT 24 Nov 12:55:43 13:00:00 73° 103° (ESE) 13:04:14 437.525
DUCHIFAT 1 24 Nov 12:59:39 13:01:39 13° 273° (W) 13:03:39 145.980
DX 1 24 Nov 13:00:09 13:02:50 16° 88° (E) 13:05:30 434.975-435.025
LO-87 24 Nov 13:07:27 13:09:43 16° 300° (WNW) 13:11:57 145.935 - 145.965
YUBILEINY 24 Nov 13:11:45 13:15:47 13° 33° (NNE) 13:19:48 435.215
Oscar 19 24 Nov 13:12:31 13:17:32 56° 259° (WSW) 13:22:37 437.125/150
AO-91 24 Nov 13:13:13 13:18:34 61° 259° (W) 13:23:50 145.960
AO-85 24 Nov 13:17:03 13:20:14 18° 245° (WSW) 13:23:34 145.980
AO-7 24 Nov 13:19:05 13:26:51 47° 54° (NE) 13:34:41 .
ITAMSAT 1 24 Nov 13:34:10 13:38:23 26° 56° (ENE) 13:42:38 435.822/435.867
UKube-1 24 Nov 13:34:31 13:37:49 21° 92° (E) 13:41:07 .
BUGSAT 1 24 Nov 13:37:30 13:40:20 18° 270° (W) 13:43:11 437.445
NO-84 24 Nov 13:49:13 13:50:44 12° 129° (SE) 13:52:18 435.350 FM
50 SAT 24 Nov 13:53:35 13:56:44 48° 101° (E) 13:59:51 437.505
ESTCUBE 1 24 Nov 13:57:05 13:59:33 15° 307° (NW) 14:02:01 437.505/2401.250
O/OREOS (USA 219) 24 Nov 13:57:17 14:01:52 66° 303° (WNW) 14:06:28 437.305
VELOX 1 24 Nov 14:00:53 14:05:11 46° 292° (WNW) 14:09:25 145.980
MOZHAYETS 4 24 Nov 14:05:30 14:06:26 11° 83° (E) 14:07:23
Gurwin Techsat 1B 24 Nov 14:05:49 14:10:31 31° 266° (W) 14:15:15 435.225
M-CUBED/EXP-1 PRIME 24 Nov 14:23:14 14:26:41 34° 258° (WSW) 14:30:26 437.505
ITUPSAT 1 24 Nov 14:24:57 14:26:54 12° 85° (E) 14:28:51 437.325
DOVE 4 24 Nov 14:27:27 14:30:38 16° 51° (NE) 14:33:50 437.250
SPROUT 24 Nov 14:32:32 14:35:25 18° 303° (WNW) 14:38:17 437.525
DX 1 24 Nov 14:35:09 14:39:34 78° 289° (WNW) 14:43:57 434.975-435.025
AO-91 24 Nov 14:54:06 14:55:59 12° 279° (W) 14:57:52 145.960
YUBILEINY 24 Nov 15:07:40 15:15:54 40° 62° (ENE) 15:24:04 435.215
UKube-1 24 Nov 15:09:55 15:14:11 56° 291° (WNW) 15:18:24 .
AO-7 24 Nov 15:11:24 15:19:32 58° 257° (WSW) 15:27:45 .
ITAMSAT 1 24 Nov 15:12:15 15:17:28 68° 256° (WSW) 15:22:43 435.822/435.867
NO-84 24 Nov 15:23:35 15:27:14 49° 149° (SSE) 15:31:09 435.350 FM
50 SAT 24 Nov 15:26:29 15:28:29 15° 300° (WNW) 15:30:29 437.505
HO-68 24 Nov 15:31:07 15:35:13 16° 36° (NE) 15:39:19 435.675
CUTE-I 24 Nov 15:32:39 15:35:43 16° 48° (NE) 15:38:48 437.470
O/OREOS (USA 219) 24 Nov 15:39:11 15:42:11 17° 325° (NW) 15:45:11 437.305
MOZHAYETS 4 24 Nov 15:39:53 15:44:28 69° 103° (ESE) 15:49:03
LilacSat-2 24 Nov 15:42:46 15:44:06 12° 55° (NE) 15:45:25 437.200
XW-2F 24 Nov 15:44:23 15:45:02 10° 54° (NE) 15:45:41 145.980 - 146.000
BEESAT 24 Nov 15:48:39 15:53:24 61° 102° (ESE) 15:58:06 436.000
ITUPSAT 1 24 Nov 16:00:47 16:05:35 76° 105° (ESE) 16:10:20 437.325
CUBESAT XI-V 24 Nov 16:00:52 16:05:06 32° 95° (E) 16:09:20 437.345
DOVE 4 24 Nov 16:02:16 16:07:25 71° 72° (ENE) 16:12:44 437.250
KAITUO 1B 24 Nov 16:04:49 16:06:33 13° 56° (ENE) 16:08:18 145.475/437.950
DX 1 24 Nov 16:12:45 16:15:04 14° 308° (NW) 16:17:22 434.975-435.025
XW-2D 24 Nov 16:27:18 16:30:29 26° 64° (ENE) 16:33:40 145.860 - 145.880
NUDT-PHONESAT 24 Nov 16:41:32 16:44:35 25° 64° (ENE) 16:47:38 437.300
XW-2B 24 Nov 16:41:58 16:45:22 34° 67° (ENE) 16:48:50 145.730 - 145.750
UKube-1 24 Nov 16:48:16 16:49:18 11° 311° (NW) 16:50:20 .
CUBEBUG 2 24 Nov 16:55:35 16:57:40 13° 54° (NE) 16:59:43 437.445
ITAMSAT 1 24 Nov 16:55:52 16:57:56 12° 277° (W) 17:00:01 435.822/435.867
CUTE 1.7 + AOD 2 24 Nov 16:57:08 17:00:02 18° 58° (ENE) 17:02:57 437.475
NO-84 24 Nov 17:00:36 17:04:32 73° 351° (N) 17:08:42 435.350 FM
RS-15 24 Nov 17:02:26 17:11:55 28° 101° (E) 17:21:19 29.354- 29.394
YUBILEINY 24 Nov 17:04:34 17:13:19 66° 267° (W) 17:22:00 435.215
KKS-1 24 Nov 17:06:07 17:10:09 32° 96° (E) 17:14:09 437.445
XW-2C 24 Nov 17:07:28 17:11:09 64° 72° (ENE) 17:14:54 145.795 - 145.815
CUTE-I 24 Nov 17:09:32 17:14:51 65° 69° (ENE) 17:20:12 437.470
AO-7 24 Nov 17:10:08 17:14:15 14° 280° (W) 17:18:25 .
LilacSat-2 24 Nov 17:13:57 17:17:43 80° 75° (ENE) 17:21:31 437.200
HO-68 24 Nov 17:14:33 17:21:22 48° 59° (ENE) 17:28:12 435.675
XW-2F 24 Nov 17:14:44 17:18:25 71° 73° (ENE) 17:22:10 145.980 - 146.000
MOZHAYETS 4 24 Nov 17:17:50 17:21:12 21° 303° (WNW) 17:24:35
AAUSAT CUBESAT 2 24 Nov 17:18:58 17:19:25 10° 51° (NE) 17:19:52 437.432
SEEDS 24 Nov 17:20:22 17:23:22 19° 59° (ENE) 17:26:23 437.485
STARS 24 Nov 17:20:28 17:23:45 20° 91° (E) 17:27:01 437.465
BEESAT 24 Nov 17:27:01 17:30:50 24° 302° (WNW) 17:34:37 436.000
KAITUO 1B 24 Nov 17:36:16 17:39:58 85° 256° (WSW) 17:43:43 145.475/437.950
CUBESAT XI-V 24 Nov 17:38:10 17:42:34 41° 294° (WNW) 17:46:58 437.345
ITUPSAT 1 24 Nov 17:39:26 17:42:55 21° 305° (NW) 17:46:24 437.325
DOVE 4 24 Nov 17:41:34 17:45:36 22° 272° (W) 17:49:44 437.250
UWE-3 24 Nov 17:43:29 17:46:37 20° 59° (ENE) 17:49:41 435.000/436.395/437.385
XW-2D 24 Nov 18:01:07 18:04:34 34° 264° (W) 18:08:02 145.860 - 145.880
AO-73 24 Nov 18:14:24 18:17:23 19° 59° (ENE) 18:20:20 145.935
NUDT-PHONESAT 24 Nov 18:14:58 18:18:19 34° 263° (W) 18:21:43 437.300
XW-2B 24 Nov 18:16:28 18:19:38 26° 266° (W) 18:22:50 145.730 - 145.750
STRAND 1 24 Nov 18:23:54 18:26:20 13° 84° (E) 18:28:45 437.568
Oscar 11 24 Nov 18:26:40 18:29:39 19° 58° (ENE) 18:32:38 .
CUBEBUG 2 24 Nov 18:29:07 18:33:36 73° 72° (ENE) 18:37:57 437.445
CUTE 1.7 + AOD 2 24 Nov 18:31:13 18:35:25 70° 258° (WSW) 18:39:40 437.475
NO-84 24 Nov 18:38:03 18:42:07 75° 11° (N) 18:46:22 435.350 FM
XW-2A 24 Nov 18:39:45 18:42:56 46° 71° (ENE) 18:46:09 145.665 - 145.685
KKS-1 24 Nov 18:42:37 18:46:47 38° 295° (WNW) 18:50:54 437.445
XW-2C 24 Nov 18:43:38 18:45:46 15° 272° (W) 18:47:54 145.795 - 145.815
AAUSAT CUBESAT 2 24 Nov 18:49:56 18:54:00 58° 71° (ENE) 18:58:06 437.432
CUTE-I 24 Nov 18:50:59 18:55:21 25° 269° (W) 18:59:45 437.470
LilacSat-2 24 Nov 18:51:03 18:52:32 12° 273° (W) 18:54:02 437.200
XW-2F 24 Nov 18:51:12 18:53:01 13° 272° (W) 18:54:50 145.980 - 146.000
SEEDS 24 Nov 18:54:30 18:58:38 64° 258° (WSW) 19:02:50 437.485
STARS 24 Nov 18:56:07 19:00:28 59° 290° (WNW) 19:04:46 437.465
ZACube-1 24 Nov 19:00:24 19:04:30 50° 70° (ENE) 19:08:35 437.345
HO-68 24 Nov 19:02:12 19:09:08 49° 261° (W) 19:16:07 435.675
YUBILEINY 24 Nov 19:03:06 19:08:21 18° 291° (WNW) 19:13:36 435.215
FO-29 24 Nov 19:05:33 19:10:14 17° 78° (ENE) 19:14:46 435.910
RS-15 24 Nov 19:10:15 19:22:33 77° 127° (SE) 19:34:40 29.354- 29.394
UWE-3 24 Nov 19:18:20 19:22:41 66° 258° (WSW) 19:26:57 435.000/436.395/437.385
nSIGHT-1 24 Nov 19:47:51 19:49:32 14° 142° (SE) 19:51:13 .
AO-73 24 Nov 19:49:01 19:53:14 65° 258° (WSW) 19:57:24 145.935
